Terminal Aerodrome Forecast
Issued by NWS Grand Junction, CO

Home | Current Version | Previous Version | Text Only | Print | Product List | Glossary On
Versions: 1 2 3 4 5 6 7 8 9 10 11 12 13 14 15 16 17 18 19 20 21 22 23 24 25 26 27 28 29 30 31 32 33 34 35 36 37 38 39 40 41 42 43 44
000
FTUS45 KGJT 280532
TAFGJT
TAF
KGJT 280532Z 2806/2906 07006KT P6SM VCSH SCT080 BKN100
     FM281400 14006KT P6SM SCT120 BKN250
     FM281800 32006KT P6SM BKN250
     FM282100 27010G20KT P6SM VCTS SCT080CB BKN120
     FM290300 04009KT P6SM VCSH SCT080 BKN120=

USA.gov is the U.S. government's official web portal to all federal, state and local government web resources and services.